Powrót do katalogu

FENGYUN 1C DEB

AktywnySSO
NORAD 30462·DEBRIS·🇨🇳 China

Wystrzelony May 10, 1999 z Taiyuan Satellite Launch Center

Loading…

Następne Przeloty (najbliższe 24 godziny)

TLE

ŚwieżeSource: Space-Track

Epoka: Sep 13, 2026, 11:46 UTC

1 30462U 99025AFZ 26256.49049263  .00000397  00000-0  24419-3 0  9990
2 30462  98.8405 243.1022 0138971 198.3961 284.1836 14.06447060  6517

Śledź FENGYUN 1C DEB w czasie rzeczywistym z AllMySat

Download on the App Store